Weather History for Sigonella, Italy

Change the Weather History Date:

Saturday, November 9, 2013

  Actual Average Record
Temperature  
Mean Temperature 70 °F -  
Max Temperature 81 °F 67 °F 81 °F (2013)
Min Temperature 59 °F 48 °F 41 °F (2006)
Cooling Degree Days 5    
Growing Degree Days 20 (Base 50)    
Moisture  
Dew Point 61 °F    
Average Humidity 84    
Maximum Humidity 100    
Minimum Humidity 41    
Precipitation  
Precipitation 0.00 in 0.07 in - ()
Sea Level Pressure  
Sea Level Pressure 30.07 in    
Wind  
Wind Speed 8 mph ()    
Max Wind Speed 15 mph    
Max Gust Speed -    
Visibility 7.6 miles    
Events      
Averages and records for this station are not official NWS values.
T = Trace of Precipitation, MM = Missing Value Source: Averaged Metar Reports

Daily Weather History Graph

Daily Weather History Graph

Search for Another Location

Airport:

Trip Planner

Search our weather history database for the weather conditions in past years. The results will help you decide how hot, cold, wet, or windy it might be!

Date:

Astronomy

Nov. 09, 2013 Rise Set
Actual Time 6:33 AM CET 4:54 PM CET
Civil Twilight 6:05 AM CET 5:21 PM CET
Nautical Twilight 5:34 AM CET 5:53 PM CET
Astronomical Twilight 5:03 AM CET 6:23 PM CET
Moon 11:59 AM CET (11/9) 11:03 PM CET (11/9)
Length of Visible Light 11h 16m
Length of Day
10h 21m
Waxing Crescent, 41% of the Moon is Illuminated
Nov 9
Waxing Crescent
Nov 10
First Quarter
Nov 17
Full
Nov 25
Last Quarter
Dec 3
New

Hourly Weather History & Observations

Time (CET) Temp. Heat Index Dew Point Humidity Pressure Visibility Wind Dir Wind Speed Gust Speed Precip Events Conditions
12:55 AM 59.0 °F - 59.0 °F 100% 30.09 in - WNW 8.1 mph - N/A   Clear
1:00 AM 60 °F - 60 °F 99% 30.12 in 6 mi WNW 8.1 mph - -  
1:55 AM 60.8 °F - 60.8 °F 100% 30.09 in - West 12.7 mph - N/A   Clear
2:55 AM 59.0 °F - 59.0 °F 100% 30.09 in - WNW 9.2 mph - N/A   Clear
3:55 AM 60.8 °F - 60.8 °F 100% 30.09 in - West 10.4 mph - N/A   Clear
4:00 AM 60 °F - 60 °F 100% 30.10 in 6 mi West 10.4 mph - -  
4:55 AM 59.0 °F - 59.0 °F 100% 30.09 in - WNW 11.5 mph - N/A   Clear
5:55 AM 60.8 °F - 60.8 °F 100% 30.06 in - WNW 12.7 mph - N/A   Clear
6:55 AM 60.8 °F - 60.8 °F 100% 30.06 in - West 10.4 mph - N/A   Clear
7:00 AM 61 °F - 61 °F 99% 30.09 in 9 mi West 10.4 mph - -  
7:55 AM 59.0 °F - 59.0 °F 100% 30.09 in - ENE 5.8 mph - N/A   Clear
8:55 AM 66.2 °F - 60.8 °F 83% 30.09 in - West 2.3 mph - N/A   Clear
9:55 AM 73.4 °F - 64.4 °F 73% 30.09 in 6.2 mi WNW 11.5 mph - N/A   Partly Cloudy
10:00 AM 73 °F - 64 °F 66% 30.09 in 12 mi WNW 11.5 mph - -   Scattered Clouds
10:55 AM 75.2 °F - 60.8 °F 61% 30.06 in 6.2 mi West 15.0 mph - N/A   Partly Cloudy
11:55 AM 77.0 °F - 59.0 °F 54% 30.06 in 6.2 mi West 13.8 mph - N/A   Partly Cloudy
12:55 PM 78.8 °F - 59.0 °F 51% 30.04 in 6.2 mi WSW 13.8 mph - N/A   Partly Cloudy
1:00 PM 79 °F - 60 °F 41% 30.04 in 11 mi WSW 13.8 mph - -   Scattered Clouds
1:55 PM 80.6 °F 80.8 °F 57.2 °F 45% 30.01 in 6.2 mi WSW 15.0 mph - N/A   Partly Cloudy
2:55 PM 77.0 °F - 60.8 °F 57% 30.01 in 6.2 mi WSW 13.8 mph - N/A   Partly Cloudy
3:55 PM 73.4 °F - 59.0 °F 61% 30.04 in 6.2 mi East 12.7 mph - N/A   Partly Cloudy
4:00 PM 74 °F - 58 °F 48% 30.04 in 11 mi East 12.7 mph - -   Scattered Clouds
4:55 PM 69.8 °F - 60.8 °F 73% 30.04 in - East 8.1 mph - N/A   Clear
5:55 PM 66.2 °F - 59.0 °F 78% 30.04 in - East 2.3 mph - N/A   Clear
6:55 PM 66.2 °F - 64.4 °F 94% 30.06 in - NE 1.2 mph - N/A   Clear
7:00 PM 66 °F - 64 °F 91% 30.07 in 10 mi NE 1.2 mph - -   Clear
7:55 PM 64.4 °F - 64.4 °F 100% 30.04 in - NNW 2.3 mph - N/A   Clear
8:55 PM 62.6 °F - 62.6 °F 100% 30.06 in - WSW 1.2 mph - N/A   Clear
9:55 PM 62.6 °F - 62.6 °F 100% 30.06 in - WNW 6.9 mph - N/A   Clear
10:00 PM 63 °F - 63 °F 100% 30.07 in 6 mi WNW 6.9 mph - -  
10:55 PM 62.6 °F - 62.6 °F 100% 30.06 in - North 3.5 mph - N/A   Clear
11:55 PM 62.6 °F - 62.6 °F 100% 30.04 in - Calm Calm - N/A   Clear